EHI
0 2 5 6 6 6 5 4 3 3 3 3 3 3 3 3 2 2 2 2 2 2 2 2 1 0 0 0 0 1 3 4 3 2 1 0 0 0 0 0 1 1 1
1 3 5 6 5 5 4 4 3 3 3 3 3 3 3 3 2 1 1 1 1 1 1 1 0 0 0 0 0 1 2 3 2 1 0 0 0 1 1 1 1 2 3
2 3 4 5 4 4 5 5 4 3 3 3 3 3 3 3 2 1 2 1 1 1 1 1 1 0 0 0 0 0 1 1 1 0 0 0 1 2 2 2 2 3 3
1 1 2 3 4 5 6 6 4 3 3 2 2 2 2 2 2 2 3 3 2 2 2 2 2 1 0 0 0 0 0 0 0 0 0 0 1 3 3 2 2 3 4
0 0 1 2 4 5 6 6 4 3 1 1 1 1 1 1 1 2 3 3 3 2 2 2 2 2 1 0 0 1 1 1 0 0 0 0 2 3 4 4 4 4 4
0 0 0 1 2 4 5 5 4 2 1 0 1 2 1 1 1 1 2 3 2 1 1 1 1 2 2 1 1 2 2 1 0 0 0 0 2 3 5 5 4 5 5
0 0 0 0 1 2 4 4 3 2 0 0 1 1 1 1 1 1 1 3 3 1 1 1 1 2 2 1 1 2 2 1 0 0 0 1 2 4 5 5 4 4 5
0 0 0 0 1 1 3 3 3 2 1 0 0 0 0 0 0 0 1 4 4 3 2 2 1 1 1 0 0 1 1 0 0 0 1 2 4 5 5 5 4 4 5
0 0 0 0 0 1 2 3 3 2 1 0 0 0 0 0 0 1 3 5 5 3 2 2 1 1 1 1 0 0 0 0 1 2 1 2 4 4 4 3 3 3 3
1 1 0 0 0 0 1 1 2 2 2 1 1 1 1 0 0 1 2 4 4 2 1 1 2 3 2 2 1 0 0 1 2 3 2 3 3 2 1 1 1 1 1
1 1 1 0 0 0 0 1 2 3 3 2 2 2 1 0 0 0 1 3 3 2 0 1 2 3 2 1 1 0 0 0 2 3 3 3 3 2 1 1 0 1 2
2 2 2 1 1 2 1 1 1 1 1 1 1 1 1 0 0 1 2 3 3 2 1 1 2 1 0 0 1 1 0 0 1 2 3 3 3 2 2 1 1 1 2
1 2 2 2 3 3 2 1 0 0 0 0 0 0 0 0 0 1 2 3 3 3 2 2 1 1 1 1 1 1 0 0 1 1 2 2 2 1 1 1 1 2 3
0 1 1 2 3 4 4 2 1 0 0 0 0 1 0 0 1 2 3 3 3 3 3 2 1 2 2 2 1 0 0 0 0 1 2 2 1 0 0 2 3 3 2
0 0 0 1 2 4 6 4 2 0 0 0 0 1 1 2 3 4 5 4 4 4 4 3 3 3 3 2 1 0 0 1 1 1 2 1 0 0 1 3 3 2 2
1 1 1 0 1 4 6 6 4 2 2 1 1 2 3 4 5 6 6 5 4 3 4 4 3 2 1 1 0 0 0 1 2 2 2 1 0 0 0 1 2 2 2
3 3 2 1 2 5 7 7 6 4 4 3 2 3 3 3 5 5 5 4 3 2 2 2 1 1 0 0 0 0 0 0 1 2 1 0 0 0 0 0 1 1 2
4 5 5 4 5 7 8 8 6 5 5 4 4 3 2 1 2 3 3 2 1 1 0 0 0 0 0 0 0 0 0 0 0 1 1 0 0 0 1 1 2 2 2
5 7 8 8 7 7 7 7 6 6 7 7 5 4 2 1 1 2 2 1 1 1 1 0 0 1 1 1 1 0 0 0 0 0 0 0 0 0 1 2 2 3 3
7 9 10 10 10 8 7 6 6 6 7 7 6 5 3 2 1 1 1 2 3 2 1 0 0 0 1 1 1 0 0 1 1 0 0 0 0 0 0 1 2 3 3
10 10 10 10 10 10 7 6 6 6 6 5 4 4 3 3 2 1 1 3 3 3 1 0 0 0 0 1 1 0 0 1 1 0 0 0 0 0 0 1 2 4 4
11 11 10 9 10 10 8 7 7 7 6 4 3 3 3 3 1 1 2 3 3 3 2 1 1 0 0 1 1 1 0 1 1 1 0 0 0 1 1 2 3 4 5
9 10 10 11 10 8 8 8 7 7 6 4 4 3 3 2 1 1 2 3 3 3 3 2 1 1 1 1 2 2 1 1 1 1 0 0 1 2 3 4 4 5 5
9 9 10 11 10 8 8 8 6 5 4 5 4 4 3 1 0 1 2 3 3 3 3 2 1 0 1 2 2 3 2 2 2 2 1 0 1 2 3 3 4 4 4
9 9 9 11 11 10 11 10 7 4 4 4 4 3 2 1 0 1 2 2 2 2 2 1 0 0 0 1 2 2 1 1 2 3 2 1 1 1 1 2 2 2 1
9 8 8 11 13 13 14 13 9 5 4 3 3 2 1 0 0 1 2 2 1 2 2 2 1 0 0 0 1 1 0 0 2 2 2 2 2 1 0 1 1 1 0
Wind_Speed
4 6 7 5 4 4 5 5 5 5 5 5 5 5 5 5 5 5 5 6 6 7 7 8 8 8 8 8 9 9 9 9 10 10 9 9 9 9 9 8 8 7 9
5 6 7 5 5 5 5 5 5 5 5 5 5 5 4 5 4 5 5 6 6 6 8 8 8 8 8 8 8 9 9 9 10 10 10 10 9 8 8 7 5 5 9
4 6 6 5 4 4 5 5 5 5 5 4 4 4 4 4 5 6 6 6 6 7 7 7 7 7 8 9 9 9 9 9 9 10 11 8 9 9 9 8 7 7 9
5 5 6 5 4 5 5 5 4 5 5 4 4 4 5 5 6 7 7 6 6 6 6 7 7 7 7 8 8 9 8 9 9 10 8 7 7 10 9 9 9 9 9
5 5 7 5 5 5 5 5 4 5 5 5 5 5 6 6 6 6 6 6 6 6 6 6 6 6 6 7 8 8 8 9 9 10 6 5 6 9 10 10 10 10 10
5 5 8 5 5 5 5 4 4 5 5 5 5 5 6 6 6 6 6 6 5 5 5 5 5 5 6 6 7 7 8 9 10 7 5 5 6 10 11 11 11 10 10
6 6 8 6 5 5 5 4 4 4 5 6 5 5 5 5 5 5 5 5 4 4 4 4 3 4 5 5 6 6 7 8 7 5 6 5 5 10 10 10 10 10 10
5 5 7 8 6 5 4 5 4 4 4 5 5 5 5 5 5 5 4 4 3 4 3 3 3 3 4 5 5 6 7 8 7 6 6 5 7 9 10 10 10 10 10
5 4 4 4 6 6 5 4 4 3 3 4 4 4 4 4 4 3 3 3 3 3 3 2 2 2 2 3 4 5 6 8 7 5 6 5 9 10 11 11 10 10 10
5 5 3 4 4 3 5 5 3 3 2 3 3 3 2 3 4 3 3 3 2 2 2 2 1 2 2 2 3 4 6 8 7 5 4 5 10 11 11 11 11 11 10
4 3 3 4 3 2 3 4 4 4 3 2 3 3 2 1 2 3 4 3 2 2 2 1 1 2 3 4 5 6 7 4 4 3 3 7 9 11 12 11 11 11 10
3 3 4 3 3 2 2 2 1 2 2 1 1 1 1 1 0 1 5 2 1 1 2 2 3 5 6 3 6 8 4 4 3 3 4 9 9 11 11 11 11 10 10
3 3 3 3 2 2 2 1 1 1 1 2 2 1 1 0 1 0 1 2 2 3 2 3 3 1 0 0 1 2 2 2 2 2 5 9 9 10 11 11 11 11 10
3 3 3 3 3 2 2 1 1 1 1 2 2 1 1 1 1 1 0 0 0 0 0 0 0 1 1 0 1 2 2 2 2 1 4 10 9 10 11 11 11 11 11
3 3 3 2 2 2 1 1 2 2 2 2 1 2 1 1 1 1 1 1 1 0 0 0 0 1 1 1 1 1 2 2 2 2 3 8 9 9 10 11 11 11 11
2 3 3 2 3 1 1 1 1 1 1 2 2 2 2 1 1 1 0 1 1 1 1 1 0 0 1 1 1 0 1 1 1 1 2 6 9 9 10 11 10 11 11
2 2 2 2 2 2 1 1 1 1 1 1 2 2 2 2 2 1 1 1 1 1 0 0 0 0 1 0 0 0 0 0 0 1 1 2 5 9 10 10 9 10 10
3 3 2 1 2 2 1 1 1 1 1 1 1 2 2 3 2 2 2 2 2 1 1 0 0 0 0 1 0 1 1 1 1 1 2 2 2 3 7 9 9 8 9
3 2 2 2 2 1 2 1 1 1 1 1 1 2 2 2 2 2 2 2 2 1 1 1 1 1 1 1 0 0 0 1 1 1 1 2 2 2 3 7 9 8 8
3 2 2 2 2 1 1 1 0 1 1 1 2 2 2 2 2 3 1 2 2 1 1 2 2 1 1 2 1 1 0 1 1 1 2 2 2 3 4 3 5 7 9
3 3 2 2 2 1 0 0 0 1 1 1 1 2 2 2 2 2 3 1 2 2 2 1 1 1 1 1 2 1 2 2 1 1 2 2 3 3 3 3 3 3 5
4 3 3 3 2 1 0 0 1 1 0 1 1 2 2 2 2 1 3 2 2 1 1 2 1 2 1 1 2 2 1 2 2 1 1 2 2 3 4 5 4 4 3
4 4 3 2 2 1 0 1 0 0 0 1 1 1 2 2 2 3 2 3 2 2 1 2 2 2 2 1 1 3 3 2 0 1 2 1 1 2 3 3 4 4 4
5 4 4 3 2 1 1 1 1 1 1 2 1 2 2 2 2 2 2 2 3 2 2 2 1 2 3 2 1 1 3 3 3 1 1 1 2 3 3 3 3 4 4
5 5 5 4 3 2 1 1 2 1 1 1 1 1 2 1 2 2 2 2 2 2 2 3 2 3 2 3 2 2 1 2 3 3 2 2 2 3 3 3 3 3 3
6 6 5 5 4 3 3 2 1 1 1 2 2 2 1 1 1 2 2 2 2 2 2 2 2 2 3 3 3 3 2 2 2 2 3 3 2 2 3 3 4 4 4
Wind_Direction
79 82 94 85 82 91 105 112 115 120 129 134 141 148 157 161 163 168 163 165 171 172 168 164 163 162 163 163 161 162 160 156 155 155 155 156 157 159 160 162 171 157 136
82 91 101 91 88 93 103 107 109 111 116 122 129 136 147 157 159 151 153 155 158 163 159 159 161 163 165 165 163 164 163 162 162 162 164 164 162 163 162 161 172 137 146
93 98 112 97 95 95 106 104 103 107 110 112 117 124 128 134 132 126 128 129 134 142 148 153 156 162 166 167 169 168 168 168 169 173 184 180 161 166 164 163 158 155 156
95 97 93 97 99 101 105 107 104 104 105 107 109 113 121 128 121 117 117 121 129 141 148 151 156 162 166 168 171 171 173 175 179 191 196 176 166 159 168 167 165 169 165
93 93 91 97 100 103 102 104 107 105 102 101 99 97 107 115 115 117 121 121 126 138 147 151 157 162 164 164 168 174 178 185 191 208 193 177 163 154 168 173 173 174 173
97 93 93 92 94 97 95 92 103 100 96 96 97 96 98 104 106 110 112 115 122 131 138 149 155 161 168 172 176 182 185 194 205 198 189 191 167 160 175 179 178 178 176
88 86 94 94 94 94 89 89 99 97 95 96 94 95 98 101 101 101 99 109 118 126 132 140 154 169 173 179 186 190 194 202 217 195 186 186 156 161 180 182 179 179 179
81 84 98 113 107 104 94 90 92 85 88 96 97 99 94 91 90 90 91 102 106 119 132 146 171 183 187 194 198 201 204 216 206 196 190 179 152 170 184 186 184 182 181
83 83 86 116 129 136 115 95 99 94 91 95 95 95 99 101 100 101 103 101 97 105 136 163 176 191 197 204 200 205 214 225 233 201 195 177 160 179 188 189 185 183 182
77 77 80 83 88 119 122 116 112 98 93 114 105 95 117 143 150 155 156 110 92 88 110 137 154 184 199 210 212 210 219 228 224 204 191 154 163 185 192 190 187 186 185
78 70 72 77 83 85 97 117 146 144 136 166 141 135 179 149 136 153 90 92 89 90 115 127 163 185 207 201 212 221 227 228 208 202 177 143 171 187 192 189 187 186 186
82 73 75 71 73 78 82 103 100 111 110 105 58 85 110 100 87 75 113 125 137 143 169 168 204 210 227 196 191 214 223 214 220 195 152 156 181 189 189 187 187 186 189
86 69 77 82 67 52 70 75 68 68 86 106 90 98 100 69 149 122 129 146 173 192 192 168 210 232 241 341 267 220 229 234 220 198 151 163 183 190 192 189 188 189 191
81 75 67 72 71 45 25 53 79 88 81 76 88 26 61 51 14 40 30 14 278 95 33 318 336 51 346 286 257 246 224 227 234 209 153 165 185 196 197 192 191 192 193
92 85 85 73 75 82 67 347 58 59 47 80 68 66 11 7 10 31 6 331 330 356 220 201 12 54 323 268 242 234 249 238 242 229 151 170 194 203 200 197 197 195 194
94 89 89 94 96 81 89 81 42 55 67 46 63 54 8 12 9 333 325 335 340 359 358 316 342 277 277 313 283 265 265 244 223 217 178 174 189 192 193 199 198 196 195
113 96 90 100 106 105 86 89 90 48 74 60 66 59 18 17 13 339 354 323 8 0 354 300 308 241 228 236 291 306 282 240 150 174 196 201 180 183 192 197 199 197 198
107 108 104 89 101 108 83 41 47 33 48 55 56 54 33 18 5 339 348 9 353 327 338 5 256 298 352 315 348 333 49 104 153 181 192 195 203 187 184 188 195 198 202
123 127 120 92 84 90 100 116 102 84 46 35 47 30 33 16 7 339 354 10 321 346 340 328 40 323 330 318 206 168 215 163 177 181 187 191 184 198 194 171 187 195 202
139 139 133 133 112 121 137 150 157 82 83 58 62 48 25 11 9 338 345 4 327 358 6 7 353 346 320 306 296 74 196 190 209 174 215 188 189 200 201 185 182 191 202
155 156 162 151 136 194 208 288 263 106 66 63 62 49 24 9 13 349 348 4 332 9 353 344 323 335 332 322 274 220 178 184 197 196 220 213 196 197 197 195 200 203 195
168 171 177 177 164 203 87 330 306 348 13 54 14 40 13 13 356 359 359 340 357 339 357 350 321 321 337 333 304 293 248 168 194 179 197 203 214 202 204 200 202 208 230
176 179 182 175 158 165 219 227 125 172 245 85 47 40 17 10 14 1 0 345 344 325 1 329 317 308 313 313 326 315 315 350 9 156 207 222 239 231 223 204 206 204 215
182 174 178 178 178 168 208 240 269 320 1 20 359 27 16 11 358 3 356 345 329 337 354 309 360 310 302 303 301 296 314 331 306 299 210 204 224 235 243 244 219 198 207
180 176 175 174 171 171 198 226 257 300 347 3 8 24 350 25 357 357 2 348 336 333 345 334 340 315 303 304 304 295 293 270 272 281 298 295 249 231 227 236 246 232 214
179 179 180 170 171 173 176 179 220 295 322 342 351 348 329 27 22 16 4 351 335 342 337 321 315 307 320 321 309 307 296 294 295 287 281 275 278 261 244 237 238 233 229